Weather History for Leesburg, FL

Change the Weather History Date:

Wednesday, April 17, 2013

  Actual Average Record
Temperature  
Mean Temperature 76 °F -  
Max Temperature 88 °F 81 °F 92 °F (1991)
Min Temperature 66 °F 57 °F 32 °F (1962)
Cooling Degree Days 12    
Growing Degree Days 26 (Base 50)    
Moisture  
Dew Point 65 °F    
Average Humidity 77    
Maximum Humidity 100    
Minimum Humidity 40    
Precipitation  
Precipitation 0.00 in - - ()
Sea Level Pressure  
Sea Level Pressure 30.14 in    
Wind  
Wind Speed 6 mph (NE)    
Max Wind Speed 14 mph    
Max Gust Speed 22 mph    
Visibility 7 miles    
Events Fog    
Averages and records for this station are not official NWS values.
T = Trace of Precipitation, MM = Missing Value Source: NWS Daily Summary

Daily Weather History Graph

Daily Weather History Graph

Search for Another Location

Airport:

Trip Planner

Search our weather history database for the weather conditions in past years. The results will help you decide how hot, cold, wet, or windy it might be!

Date:

Astronomy

Apr. 17, 2013 Rise Set
Actual Time 6:59 AM EDT 7:54 PM EDT
Civil Twilight 6:34 AM EDT 8:19 PM EDT
Nautical Twilight 6:06 AM EDT 8:47 PM EDT
Astronomical Twilight 5:36 AM EDT 9:17 PM EDT
Moon 12:21 PM EDT (4/17) 1:21 AM EDT (4/17)
Length of Visible Light 13h 44m
Length of Day
12h 55m
Waxing Crescent, 42% of the Moon is Illuminated
Apr 17
Waxing Crescent
Apr 18
First Quarter
Apr 25
Full
May 2
Last Quarter
May 9
New

Hourly Weather History & Observations

Time (EDT) Temp. Heat Index Dew Point Humidity Pressure Visibility Wind Dir Wind Speed Gust Speed Precip Events Conditions
12:53 AM 69.1 °F - 66.0 °F 90% 30.17 in 10.0 mi ENE 4.6 mph - N/A   Clear
1:53 AM 69.1 °F - 66.9 °F 93% 30.15 in 10.0 mi NE 4.6 mph - N/A   Clear
2:53 AM 68.0 °F - 66.9 °F 96% 30.15 in 10.0 mi Calm Calm - N/A   Clear
3:39 AM 66.2 °F - 64.4 °F 94% 30.14 in 10.0 mi Calm Calm - N/A   Scattered Clouds
3:44 AM 66.2 °F - 64.4 °F 94% 30.14 in 1.5 mi North 3.5 mph - N/A   Scattered Clouds
3:46 AM 66.2 °F - 66.2 °F 100% 30.15 in 0.8 mi North 3.5 mph - N/A   Mist
3:53 AM 66.9 °F - 66.0 °F 97% 30.14 in 0.2 mi North 3.5 mph - N/A Fog Fog
4:53 AM 66.9 °F - 66.0 °F 97% 30.14 in 0.2 mi NNE 5.8 mph - N/A Fog Fog
5:53 AM 66.0 °F - 64.9 °F 96% 30.15 in 0.2 mi North 4.6 mph - N/A Fog Fog
6:53 AM 66.0 °F - 64.9 °F 96% 30.16 in 0.2 mi NNE 4.6 mph - N/A Fog Fog
7:53 AM 66.9 °F - 66.0 °F 97% 30.18 in 0.2 mi NE 5.8 mph - N/A Fog Fog
8:25 AM 69.8 °F - 68.0 °F 94% 30.18 in 2.5 mi NNE 5.8 mph - N/A   Overcast
8:32 AM 69.8 °F - 68.0 °F 94% 30.18 in 7.0 mi NE 6.9 mph - N/A   Overcast
8:53 AM 70.0 °F - 68.0 °F 93% 30.17 in 10.0 mi NNE 5.8 mph - N/A   Mostly Cloudy
9:14 AM 71.6 °F - 68.0 °F 88% 30.18 in 10.0 mi ENE 6.9 mph - N/A   Scattered Clouds
10:53 AM 77.0 °F - 66.9 °F 71% 30.17 in 10.0 mi East 6.9 mph - N/A   Clear
11:53 AM 82.0 °F 83.8 °F 64.9 °F 56% 30.16 in 10.0 mi NE 10.4 mph - N/A   Clear
12:53 PM 82.9 °F 84.4 °F 64.0 °F 53% 30.14 in 10.0 mi ENE 12.7 mph - N/A   Mostly Cloudy
1:53 PM 84.9 °F 84.4 °F 59.0 °F 41% 30.12 in 10.0 mi ENE 13.8 mph 21.9 mph N/A   Clear
2:53 PM 87.1 °F 86.7 °F 60.1 °F 40% 30.10 in 10.0 mi NE 13.8 mph 19.6 mph N/A   Partly Cloudy
3:53 PM 86.0 °F 85.4 °F 59.0 °F 40% 30.08 in 10.0 mi ENE 10.4 mph - N/A   Mostly Cloudy
4:53 PM 84.9 °F 85.0 °F 61.0 °F 44% 30.07 in 10.0 mi ENE 11.5 mph - N/A   Mostly Cloudy
5:53 PM 82.0 °F 83.0 °F 62.1 °F 51% 30.08 in 10.0 mi East 12.7 mph - N/A   Mostly Cloudy
6:53 PM 80.1 °F 81.2 °F 62.1 °F 54% 30.09 in 10.0 mi East 11.5 mph - N/A   Overcast
7:53 PM 77.0 °F - 63.0 °F 62% 30.09 in 10.0 mi East 5.8 mph - N/A   Scattered Clouds
8:53 PM 75.9 °F - 63.0 °F 64% 30.11 in 10.0 mi East 9.2 mph - N/A   Clear
9:53 PM 73.9 °F - 64.9 °F 73% 30.12 in 10.0 mi East 6.9 mph - N/A   Clear
10:53 PM 72.0 °F - 64.9 °F 78% 30.12 in 10.0 mi ENE 3.5 mph - N/A   Clear
11:53 PM 71.1 °F - 66.0 °F 84% 30.09 in 10.0 mi ENE 3.5 mph - N/A   Clear